Weather History for Bigfork, MN

Change the Weather History Date:

Monday, December 2, 2013

  Actual Average (KGPZ) Record (KGPZ)
Temperature  
Mean Temperature 20 °F -  
Max Temperature 28 °F 25 °F 54 °F (1941)
Min Temperature 12 °F 8 °F -34 °F (1919)
Degree Days  
Heating Degree Days 45    
Moisture  
Dew Point 21 °F    
Average Humidity 88    
Maximum Humidity 93    
Minimum Humidity 80    
Precipitation  
Precipitation 0.18 in - - ()
Sea Level Pressure  
Sea Level Pressure 29.76 in    
Wind  
Wind Speed 4 mph (ENE)    
Max Wind Speed 10 mph    
Max Gust Speed 17 mph    
Visibility 4 miles    
Events Snow    
Averages and records for this station are not official NWS values.
T = Trace of Precipitation, MM = Missing Value Source: NWS Daily Summary

Daily Weather History Graph

Daily Weather History Graph

Search for Another Location

Airport:

Trip Planner

Search our weather history database for the weather conditions in past years. The results will help you decide how hot, cold, wet, or windy it might be!

Date:

Astronomy

Dec. 02, 2013 Rise Set
Actual Time 7:44 AM CST 4:23 PM CST
Civil Twilight 7:08 AM CST 4:59 PM CST
Nautical Twilight 6:29 AM CST 5:38 PM CST
Astronomical Twilight 5:52 AM CST 6:15 PM CST
Moon 7:07 AM CST (12/2) 4:29 PM CST (12/2)
Length of Visible Light 9h 50m
Length of Day
8h 39m
Waning Crescent, 0% of the Moon is Illuminated
Dec 2
Waning Crescent
Dec 2
New
Dec 9
First Quarter
Dec 17
Full
Dec 25
Last Quarter

Hourly Weather History & Observations

Time (CST) Temp. Windchill Dew Point Humidity Pressure Visibility Wind Dir Wind Speed Gust Speed Precip Events Conditions
12:13 AM 12.2 °F - 10.4 °F 92% 29.92 in 10.0 mi Calm Calm - N/A   Overcast
12:33 AM 12.2 °F - 10.4 °F 92% 29.91 in 10.0 mi Calm Calm - N/A   Scattered Clouds
12:53 AM 12.2 °F - 8.6 °F 85% 29.90 in 10.0 mi Calm Calm - N/A   Clear
1:13 AM 12.2 °F 6.1 °F 10.4 °F 92% 29.90 in 10.0 mi East 3.5 mph - N/A   Mostly Cloudy
1:33 AM 15.8 °F 10.2 °F 14.0 °F 93% 29.89 in 10.0 mi East 3.5 mph - N/A   Overcast
1:53 AM 17.6 °F - 15.8 °F 93% 29.89 in 10.0 mi Calm Calm - N/A   Overcast
2:13 AM 17.6 °F - 15.8 °F 93% 29.88 in 10.0 mi Calm Calm - N/A   Overcast
2:33 AM 19.4 °F - 15.8 °F 86% 29.88 in 10.0 mi Calm Calm - N/A   Mostly Cloudy
2:53 AM 19.4 °F - 15.8 °F 86% 29.87 in 10.0 mi Calm Calm - N/A   Mostly Cloudy
3:13 AM 19.4 °F - 15.8 °F 86% 29.87 in 10.0 mi Calm Calm - N/A Snow Light Snow
3:33 AM 19.4 °F 14.3 °F 15.8 °F 86% 29.86 in 7.0 mi East 3.5 mph - N/A Snow Light Snow
3:53 AM 19.4 °F 14.3 °F 15.8 °F 86% 29.85 in 2.5 mi East 3.5 mph - N/A Snow Light Snow
4:13 AM 19.4 °F 12.8 °F 17.6 °F 93% 29.84 in 0.8 mi East 4.6 mph - N/A Snow Snow
4:33 AM 19.4 °F 14.3 °F 17.6 °F 93% 29.83 in 1.0 mi East 3.5 mph - N/A Snow Snow
4:53 AM 19.4 °F 12.8 °F 17.6 °F 93% 29.82 in 2.0 mi East 4.6 mph - N/A Snow Light Snow
5:13 AM 21.2 °F 13.6 °F 17.6 °F 86% 29.81 in 3.0 mi East 5.8 mph - N/A Snow Light Snow
5:33 AM 21.2 °F 16.4 °F 17.6 °F 86% 29.80 in 2.0 mi East 3.5 mph - N/A Snow Light Snow
5:53 AM 21.2 °F 14.9 °F 17.6 °F 86% 29.80 in 1.5 mi East 4.6 mph - N/A Snow Light Snow
6:13 AM 21.2 °F 14.9 °F 17.6 °F 86% 29.79 in 2.0 mi East 4.6 mph - N/A Snow Light Snow
6:33 AM 21.2 °F 14.9 °F 17.6 °F 86% 29.79 in 1.5 mi East 4.6 mph - N/A Snow Light Snow
6:53 AM 21.2 °F 14.9 °F 19.4 °F 93% 29.79 in 2.0 mi East 4.6 mph - N/A Snow Light Snow
7:13 AM 21.2 °F 13.6 °F 19.4 °F 93% 29.79 in 2.0 mi East 5.8 mph - 0.01 in Snow Light Snow
7:33 AM 21.2 °F 14.9 °F 19.4 °F 93% 29.78 in 1.8 mi East 4.6 mph - 0.02 in Snow Light Snow
7:53 AM 21.2 °F 13.6 °F 19.4 °F 93% 29.77 in 2.0 mi East 5.8 mph - N/A Snow Light Snow
8:13 AM 21.2 °F 12.6 °F 19.4 °F 93% 29.78 in 2.0 mi East 6.9 mph - 0.01 in Snow Light Snow
8:33 AM 21.2 °F 13.6 °F 19.4 °F 93% 29.77 in 1.5 mi East 5.8 mph - 0.01 in Snow Light Snow
8:53 AM 21.2 °F 12.6 °F 19.4 °F 93% 29.77 in 2.0 mi East 6.9 mph - N/A Snow Light Snow
9:13 AM 23.0 °F 17.0 °F 19.4 °F 86% 29.76 in 1.8 mi East 4.6 mph - N/A Snow Light Snow
9:33 AM 23.0 °F 17.0 °F 19.4 °F 86% 29.76 in 2.0 mi East 4.6 mph - 0.01 in Snow Light Snow
9:53 AM 24.8 °F 16.9 °F 19.4 °F 80% 29.75 in 3.0 mi East 6.9 mph - N/A Snow Light Snow
10:13 AM 24.8 °F 17.9 °F 21.2 °F 86% 29.76 in 2.0 mi East 5.8 mph - 0.01 in Snow Light Snow
10:33 AM 24.8 °F 19.1 °F 21.2 °F 86% 29.76 in 1.0 mi East 4.6 mph - 0.01 in Snow Light Snow
10:53 AM 24.8 °F 17.9 °F 21.2 °F 86% 29.75 in 1.0 mi East 5.8 mph - N/A Snow Light Snow
11:13 AM 26.6 °F 19.1 °F 21.2 °F 80% 29.75 in 1.0 mi ENE 6.9 mph - 0.01 in Snow Light Snow
11:33 AM 26.6 °F 19.1 °F 21.2 °F 80% 29.74 in 1.2 mi East 6.9 mph - 0.02 in Snow Light Snow
11:53 AM 26.6 °F 19.1 °F 21.2 °F 80% 29.73 in 2.0 mi East 6.9 mph - N/A Snow Light Snow
12:13 PM 26.6 °F 18.2 °F 21.2 °F 80% 29.73 in 0.8 mi ENE 8.1 mph - 0.01 in Snow Light Snow
12:33 PM 26.6 °F 19.1 °F 23.0 °F 86% 29.73 in 1.0 mi ENE 6.9 mph - 0.01 in Snow Light Snow
12:53 PM 26.6 °F 20.0 °F 23.0 °F 86% 29.72 in 0.8 mi ENE 5.8 mph - N/A Snow Light Snow
1:13 PM 26.6 °F 19.1 °F 24.8 °F 93% 29.71 in 0.5 mi ENE 6.9 mph - 0.01 in Snow Snow
1:33 PM 26.6 °F 19.1 °F 24.8 °F 93% 29.71 in 0.8 mi ENE 6.9 mph - 0.02 in Snow Snow
1:53 PM 26.6 °F 20.0 °F 24.8 °F 93% 29.71 in 1.2 mi ENE 5.8 mph - 0.01 in Snow Light Snow
2:13 PM 26.6 °F 19.1 °F 24.8 °F 93% 29.70 in 1.2 mi ENE 6.9 mph - 0.01 in Snow Light Snow
2:33 PM 26.6 °F 16.8 °F 24.8 °F 93% 29.70 in 1.5 mi ENE 10.4 mph - 0.02 in Snow Light Snow
2:54 PM 26.6 °F 19.1 °F 24.8 °F 93% 29.69 in 3.0 mi ENE 6.9 mph - N/A Snow Light Snow
3:13 PM 26.6 °F 16.8 °F 24.8 °F 93% 29.69 in 2.0 mi ENE 10.4 mph - 0.01 in Snow Light Snow
3:33 PM 26.6 °F 17.5 °F 23.0 °F 86% 29.69 in 5.0 mi ENE 9.2 mph - 0.01 in Snow Light Snow
3:53 PM 26.6 °F 17.5 °F 23.0 °F 86% 29.69 in 10.0 mi ENE 9.2 mph - 0.01 in Snow Light Snow
4:13 PM 26.6 °F 19.1 °F 24.8 °F 93% 29.69 in 10.0 mi ENE 6.9 mph - 0.01 in   Overcast
4:33 PM 26.6 °F 17.5 °F 24.8 °F 93% 29.69 in 10.0 mi NE 9.2 mph - 0.01 in   Overcast
4:53 PM 26.6 °F 18.2 °F 24.8 °F 93% 29.69 in 4.0 mi ENE 8.1 mph - N/A Snow Light Snow
5:13 PM 26.6 °F 18.2 °F 24.8 °F 93% 29.69 in 3.0 mi ENE 8.1 mph - N/A Snow Light Snow
5:33 PM 28.4 °F 19.7 °F 24.8 °F 86% 29.69 in 10.0 mi ENE 9.2 mph 17.3 mph N/A Snow Light Snow
5:53 PM 28.4 °F 19.7 °F 24.8 °F 86% 29.69 in 5.0 mi ENE 9.2 mph - N/A Snow Light Snow
6:13 PM 26.6 °F 19.1 °F 24.8 °F 93% 29.68 in 1.5 mi ENE 6.9 mph - N/A Snow Light Snow
6:33 PM 28.4 °F 20.4 °F 24.8 °F 86% 29.68 in 1.5 mi ENE 8.1 mph - N/A Snow Light Snow
6:53 PM 28.4 °F 21.2 °F 24.8 °F 86% 29.69 in 2.0 mi ENE 6.9 mph - N/A Snow Light Snow
7:13 PM 28.4 °F 20.4 °F 24.8 °F 86% 29.69 in 2.5 mi ENE 8.1 mph - 0.01 in Snow Light Snow
7:33 PM 28.4 °F 22.2 °F 24.8 °F 86% 29.69 in 1.8 mi ENE 5.8 mph - 0.01 in Snow Light Snow
7:53 PM 28.4 °F 20.4 °F 24.8 °F 86% 29.69 in 2.5 mi NE 8.1 mph - N/A Snow Light Snow
8:13 PM 28.4 °F 20.4 °F 24.8 °F 86% 29.69 in 1.8 mi ENE 8.1 mph - N/A Snow Light Snow
8:33 PM 28.4 °F 23.3 °F 24.8 °F 86% 29.69 in 1.8 mi NE 4.6 mph - N/A Snow Light Snow
8:53 PM 28.4 °F 21.2 °F 24.8 °F 86% 29.70 in 1.2 mi NE 6.9 mph - N/A Snow Light Snow
9:13 PM 28.4 °F 21.2 °F 24.8 °F 86% 29.70 in 1.2 mi NE 6.9 mph - N/A Snow Light Snow
9:33 PM 28.4 °F 22.2 °F 24.8 °F 86% 29.71 in 1.2 mi NE 5.8 mph - N/A Snow Light Snow
9:53 PM 28.4 °F 20.4 °F 24.8 °F 86% 29.71 in 1.5 mi NE 8.1 mph - N/A Snow Light Snow
10:13 PM 28.4 °F 20.4 °F 24.8 °F 86% 29.71 in 1.2 mi NE 8.1 mph - N/A Snow Light Snow
10:33 PM 28.4 °F 20.4 °F 24.8 °F 86% 29.71 in 1.8 mi NE 8.1 mph - 0.01 in Snow Light Snow
10:53 PM 28.4 °F 21.2 °F 24.8 °F 86% 29.71 in 2.5 mi NE 6.9 mph - N/A Snow Light Snow
11:13 PM 28.4 °F 22.2 °F 24.8 °F 86% 29.71 in 1.8 mi NE 5.8 mph - 0.01 in Snow Light Snow
11:33 PM 28.4 °F 20.4 °F 24.8 °F 86% 29.71 in 1.8 mi NE 8.1 mph - 0.02 in Snow Light Snow
11:53 PM 28.4 °F 21.2 °F 24.8 °F 86% 29.71 in 2.0 mi NE 6.9 mph - N/A Snow Light Snow